Regional Weather Roundup
Issued by NWS

Home | Current Version | Previous Version | Text Only | Print | Product List | Glossary On
Versions: 1 2 3 4 5 6 7 8 9 10 11 12 13 14 15 16 17 18 19 20 21 22 23 24 25 26 27 28 29 30 31 32 33 34 35 36 37 38 39 40 41 42 43 44 45 46 47 48 49 50
000
ASUS43 KMKX 210259
RWRWI

WISCONSIN REGIONAL WEATHER ROUNDUP
NATIONAL WEATHER SERVICE MILWAUKEE/SULLIVAN WI
900 PM CST FRI JAN 20 2017

NOTE: "FAIR" INDICATES FEW OR NO CLOUDS BELOW 12,000 FEET WITH NO
SIGNIFICANT WEATHER AND/OR OBSTRUCTIONS TO VISIBILITY.

WIZ001-002-006>008-014>016-023>028-210400-
NORTHWEST WISCONSIN

CITY           SKY/WX    TMP DP  RH WIND       PRES   REMARKS
SUPERIOR ARPT  CLOUDY    34  34 100 E6        29.59F FOG     WCI  29
ASHLAND        CLOUDY    35  34  96 E5        29.62S WCI  31
HAYWARD        CLOUDY    36  33  89 SE6       29.58S WCI  31
SIREN          CLOUDY    35  34  98 CALM      29.58R FOG
CUMBERLAND     FOG       32  32 100 SE7       29.57S VSB 1/4 WCI  26
RICE LAKE      FOG       34  34  99 SE8       29.59F VSB 3/4 WCI  28
CHETEK         CLOUDY    34  34 100 SE5       29.59S FOG     WCI  30
LADYSMITH      CLOUDY    35  35  98 SE5       29.61S FOG     WCI  31
EAU CLAIRE     NOT AVBL
MENOMONIE        N/A    N/A N/A N/A MISG        N/A
NEW RICHMOND   CLOUDY    34  34 100 SE6       29.58S FOG     WCI  29
OSCEOLA        CLOUDY    35  35 100 SE7       29.60S FOG     WCI  29
$$

WIZ003>005-009-010-017-018-210400-
NORTH CENTRAL WISCONSIN

CITY           SKY/WX    TMP DP  RH WIND       PRES   REMARKS
MANITOWISH WTR CLOUDY    33  33 100 CALM      29.60S FOG
ARBOR VITAE    CLOUDY    37  36  96 SE5       29.61S FOG     WCI  33
WOODRUFF       CLOUDY    37  36  96 SE5       29.61S FOG     WCI  33
RHINELANDER    CLOUDY    34  34 100 SE6       29.61F FOG     WCI  29
EAGLE RIVER    DRIZZLE   33  33 100 SE5       29.61S WCI  29
LAND O LAKES   CLOUDY    34  34 100 CALM      29.63S
PHILLIPS       CLOUDY    33  33 100 S5        29.59S FOG     WCI  29
TOMAHAWK       CLOUDY    33  32  96 CALM      29.62S FOG
MEDFORD        CLOUDY    32  32  99 SE8       29.60S FOG     WCI  25
MERRILL        CLOUDY    33  33 100 S5          N/A  FOG     WCI  29
$$

WIZ029-030-035-036-043>047-210400-
CENTRAL WISCONSIN

CITY           SKY/WX    TMP DP  RH WIND       PRES   REMARKS
WAUSAU         CLOUDY    33  33 100 SE8       29.62S FOG     WCI  26
MOSINEE        CLOUDY    34  34 100 SE7       29.64R FOG     WCI  28
MARSHFIELD     CLOUDY    33  32  96 SE8       29.61R FOG     WCI  26
STEVENS POINT  CLOUDY    32  32 100 SE6       29.65R FOG     WCI  26
WAUPACA        FOG       36  34  94 CALM      29.66S VSB 1
WAUTOMA        CLOUDY    35  34  96 E3        29.65S FOG
WISC RAPIDS    CLOUDY    34  34 100 SE6       29.64S FOG     WCI  29
CAMP DOUGLAS   CLOUDY    34  34 100 E7        29.62S FOG     WCI  28
$$

WIZ011>013-019>022-031-037>040-048>050-210400-
NORTHEAST WISCONSIN

CITY           SKY/WX    TMP DP  RH WIND       PRES   REMARKS
ANTIGO         CLOUDY    32  32 100 SE6       29.64R FOG     WCI  26
SHAWANO        CLOUDY    35  33  94 CALM      29.68R FOG
OCONTO         CLOUDY    32  32 100 CALM      29.69R VSB 3/4
STURGEON BAY   FOG       34  33  96 NE3       29.69R VSB 1/2
GREEN BAY      CLOUDY    35  35 100 NE5       29.68R FOG     WCI  31
MANITOWOC      NOT AVBL
APPLETON         N/A     34  34 100 E3        29.65R FOG
CLINTONVILLE   CLOUDY    34  32  93 CALM      29.67R FOG
OSHKOSH        CLOUDY    34  33  96 E3        29.65S FOG
$$

WIZ032>034-041-042-053>061-210400-
SOUTHWEST WISCONSIN

CITY           SKY/WX    TMP DP  RH WIND       PRES   REMARKS
LA CROSSE      CLOUDY    40  36  86 E5        29.60F
SPARTA         CLOUDY    34  34 100 E3        29.62S FOG
VIROQUA        CLOUDY    34  34 100 E6        29.58F VSB 1/4 WCI  29
BOSCOBEL       FOG       37  36  96 CALM      29.62S VSB 1/4
PRAIRIE DU CHI FOG       37  36  96 E3        29.60R VSB 3/4
PLATTEVILLE    CLOUDY    36  36 100 E8        29.60S VSB 1/4 WCI  29
$$

WIZ056-057-062-063-064-067-068-210400-
SOUTH CENTRAL WISCONSIN

CITY           SKY/WX    TMP DP  RH WIND       PRES   REMARKS
REEDSBURG      CLOUDY    35  35 100 CALM      29.61F FOG
BARABOO/DELLS  CLOUDY    36  35  99 SE3       29.62S FOG
LONE ROCK      FOG       37  36  96 E7        29.62F VSB 1   WCI  32
MINERAL POINT  FOG       37  37 100 E7        29.60S VSB 1/4 WCI  32
MADISON        DRIZZLE   36  36 100 E5        29.63F FOG     WCI  32
MIDDLETON      CLOUDY    37  37 100 E5        29.63F VSB 3/4 WCI  34
WATERTOWN      CLOUDY    36  36 100 E3        29.64S FOG
MONROE         SNOW      36  36 100 E3        29.61S VSB 1/4
JANESVILLE     FOG       37  37 100 E7        29.62F VSB 1/4 WCI  32
$$

WIZ051-052-058>065-066-070>072-210400-
SOUTHEAST WISCONSIN

CITY           SKY/WX    TMP DP  RH WIND       PRES   REMARKS
MILWAUKEE      FOG       37  36  96 E3        29.66F VSB 1/4
WAUKESHA       CLOUDY    34  34 100 E5        29.65S FOG     WCI  30
MILWAUKEE/TIMM CLOUDY    36  34  93 SE3       29.68R FOG
RACINE         FOG       37  36  96 E6        29.67F VSB 1/4 WCI  32
KENOSHA        FOG       37  35  92 E5        29.65F VSB 1/4 WCI  33
FOND DU LAC    CLOUDY    36  33  89 E3        29.65S FOG
SHEBOYGAN      FOG       35  34  96 CALM      29.67R VSB 1/2
WEST BEND      FOG       34  34 100 SE3       29.66R VSB 1/4
JUNEAU         FOG       34  34  99 E5        29.66R VSB 1/4 WCI  30
$$

LSZ147-162-210400-
LAKE SUPERIOR

STATION/POSITION TIME  TEMP    WIND        PRES    WAVE
                       AIR SEA DIR/SP/G            HT/PER
                 (UTC) (F)     (DEG/KT/KT) (MB)    (FT/S)
DEVILS ISLAND    0200   34      90/  8/  9 1004.3F
PORT WING        0230   36      90/  2/  4 1003.0S
SAXON HARBOR     0230   33      CALM  /  1 1003.4S
$$

LMZ867-665-643>646-210400-
LAKE MICHIGAN

STATION/POSITION TIME  TEMP    WIND        PRES    WAVE
                       AIR SEA DIR/SP/G            HT/PER
                 (UTC) (F)     (DEG/KT/KT) (MB)    (FT/S)
NORTHPORT PIER   0240   33        CALM     1005.4S
SISTER BAY       0250   33        CALM       N/A
KEWAUNEE LAKESHO 0230   35      CALM  /  3 1004.9R
SHEBOYGAN LAKESH 0200   35     140/  4/  5 1005.1F
PORT WASHINGTON  0240   37     140/  3/  4 1006.1R
KENOSHA   LAKESH 0200   36     110/  6/  6 1005.1
$$

TC  - TEMPERATURE IN CELSIUS
VSB - VISIBILITY IN STATUTE MILES
WCI - WIND CHILL INDEX
HX  - HEAT INDEX





USA.gov is the U.S. government's official web portal to all federal, state and local government web resources and services.